Location: Peterborough
(44.3091°N, 78.3197°W)
Time: 07:18:22
(UTC-04:00)

Vanguard 1 Rocket - Pass Details

Date: 27 March 2023
Orbit: 655 x 4220 km, 34.3° (Epoch: 04 June)

Event Time Altitude Azimuth Distance (km) Brightness Sun altitude
Rises 04:51:23 0° 277° (W) 6,701 - -23.4°
Reaches altitude 10° 04:57:17 10° 268° (W) 5,027 - -22.5°
Exits shadow 05:06:44 28° 223° (SW) 2,695 9.2 -21.0°
Maximum altitude 05:07:23 28° 217° (SW) 2,611 9.2 -20.9°
Drops below altitude 10° 05:13:34 10° 160° (SSE) 2,982 10.0 -19.9°
Sets 05:16:06 0° 148° (SSE) 3,640 10.6 -19.5°
